TimeCDT,TemperatureF,Dew PointF,Humidity,Sea Level PressureIn,VisibilityMPH,Wind Direction,Wind SpeedMPH,Gust SpeedMPH,PrecipitationIn,Events,Conditions,WindDirDegrees,DateUTC
12:29 AM,73.4,71.6,94,29.92,1.2,Calm,Calm,-,N/A,,Clear,0,2013-09-03 05:29:00
12:39 AM,73.4,71.6,94,29.92,3.0,Calm,Calm,-,N/A,,Clear,0,2013-09-03 05:39:00
12:53 AM,73.9,72.0,93,29.92,3.0,Calm,Calm,-,N/A,,Clear,0,2013-09-03 05:53:00
1:00 AM,73.4,71.6,94,29.93,2.5,Calm,Calm,-,N/A,,Clear,0,2013-09-03 06:00:00
1:14 AM,73.4,71.6,94,29.92,1.5,Calm,Calm,-,N/A,,Partly Cloudy,0,2013-09-03 06:14:00
1:26 AM,73.4,71.6,94,29.92,0.5,Calm,Calm,-,N/A,Fog,Fog,0,2013-09-03 06:26:00
1:37 AM,73.4,71.6,94,29.92,1.8,Calm,Calm,-,N/A,,Scattered Clouds,0,2013-09-03 06:37:00
1:44 AM,73.4,71.6,94,29.92,2.0,Calm,Calm,-,N/A,,Scattered Clouds,0,2013-09-03 06:44:00
1:53 AM,73.0,72.0,96,29.92,2.5,Calm,Calm,-,N/A,,Partly Cloudy,0,2013-09-03 06:53:00
2:04 AM,73.4,71.6,94,29.92,1.5,Calm,Calm,-,N/A,,Clear,0,2013-09-03 07:04:00
2:16 AM,73.4,73.4,100,29.92,2.5,Calm,Calm,-,N/A,,Clear,0,2013-09-03 07:16:00
2:34 AM,73.4,71.6,94,29.92,1.2,Calm,Calm,-,N/A,,Clear,0,2013-09-03 07:34:00
2:53 AM,73.0,72.0,96,29.91,1.0,Calm,Calm,-,N/A,,Scattered Clouds,0,2013-09-03 07:53:00
3:08 AM,71.6,71.6,100,29.92,3.0,Calm,Calm,-,N/A,,Partly Cloudy,0,2013-09-03 08:08:00
3:11 AM,71.6,71.6,100,29.92,1.8,Calm,Calm,-,N/A,,Partly Cloudy,0,2013-09-03 08:11:00
3:21 AM,71.6,71.6,100,29.92,0.5,Calm,Calm,-,N/A,Fog,Fog,0,2013-09-03 08:21:00
3:34 AM,73.4,71.6,94,29.92,1.2,Calm,Calm,-,N/A,,Clear,0,2013-09-03 08:34:00
3:53 AM,73.0,72.0,96,29.92,0.8,Calm,Calm,-,N/A,,Partly Cloudy,0,2013-09-03 08:53:00
3:59 AM,73.4,71.6,94,29.92,2.0,Calm,Calm,-,N/A,,Scattered Clouds,0,2013-09-03 08:59:00
4:07 AM,73.4,73.4,100,29.92,4.0,Calm,Calm,-,N/A,,Scattered Clouds,0,2013-09-03 09:07:00
4:53 AM,73.0,72.0,96,29.92,3.0,SSE,3.5,-,N/A,,Clear,150,2013-09-03 09:53:00
5:12 AM,73.4,71.6,94,29.93,1.8,Calm,Calm,-,N/A,,Clear,0,2013-09-03 10:12:00
5:53 AM,72.0,71.1,97,29.94,1.2,Calm,Calm,-,N/A,,Clear,0,2013-09-03 10:53:00
6:01 AM,71.6,69.8,94,29.94,0.8,Calm,Calm,-,N/A,,Clear,0,2013-09-03 11:01:00
6:12 AM,71.6,69.8,94,29.94,0.2,Calm,Calm,-,N/A,Fog,Fog,0,2013-09-03 11:12:00
6:21 AM,71.6,69.8,94,29.94,1.0,Calm,Calm,-,N/A,,Clear,0,2013-09-03 11:21:00
6:33 AM,71.6,69.8,94,29.94,0.5,ENE,3.5,-,0.01,Fog,Fog,60,2013-09-03 11:33:00
6:41 AM,71.6,71.6,100,29.95,2.0,Calm,Calm,-,0.01,,Clear,0,2013-09-03 11:41:00
6:53 AM,72.0,71.1,97,29.94,2.0,Calm,Calm,-,0.01,,Clear,0,2013-09-03 11:53:00
7:00 AM,71.6,71.6,100,29.95,1.5,Calm,Calm,-,N/A,,Clear,0,2013-09-03 12:00:00
7:19 AM,73.4,71.6,94,29.95,3.0,Calm,Calm,-,N/A,,Clear,0,2013-09-03 12:19:00
7:30 AM,73.4,71.6,94,29.96,2.0,Calm,Calm,-,N/A,,Clear,0,2013-09-03 12:30:00
7:53 AM,75.0,73.0,94,29.96,3.0,Calm,Calm,-,N/A,,Mostly Cloudy,0,2013-09-03 12:53:00
8:53 AM,80.1,73.0,79,29.98,6.0,ENE,9.2,-,N/A,,Haze,60,2013-09-03 13:53:00
9:53 AM,84.9,72.0,65,29.99,9.0,ENE,5.8,-,N/A,,Clear,60,2013-09-03 14:53:00
10:53 AM,88.0,72.0,59,29.99,9.0,East,5.8,-,N/A,,Clear,100,2013-09-03 15:53:00
11:53 AM,90.0,72.0,55,29.98,10.0,SSW,4.6,-,N/A,,Clear,200,2013-09-03 16:53:00
12:53 PM,93.0,72.0,50,29.96,10.0,Calm,Calm,-,N/A,,Partly Cloudy,0,2013-09-03 17:53:00
1:53 PM,95.0,71.1,46,29.94,10.0,ENE,3.5,-,N/A,,Scattered Clouds,60,2013-09-03 18:53:00
2:53 PM,98.1,69.1,39,29.91,10.0,Calm,Calm,-,N/A,,Partly Cloudy,0,2013-09-03 19:53:00
3:53 PM,96.1,70.0,43,29.87,10.0,Calm,Calm,-,N/A,,Scattered Clouds,0,2013-09-03 20:53:00
4:53 PM,96.1,69.1,41,29.87,8.0,ENE,11.5,-,N/A,,Mostly Cloudy,60,2013-09-03 21:53:00
5:53 PM,93.0,69.1,45,29.88,10.0,NE,10.4,-,N/A,,Clear,40,2013-09-03 22:53:00
6:53 PM,91.0,70.0,50,29.89,10.0,ENE,3.5,-,N/A,,Clear,70,2013-09-03 23:53:00
7:53 PM,87.1,70.0,57,29.92,10.0,ENE,4.6,-,N/A,,Partly Cloudy,60,2013-09-04 00:53:00
8:53 PM,86.0,69.1,57,29.93,10.0,ENE,6.9,-,N/A,,Mostly Cloudy,60,2013-09-04 01:53:00
9:53 PM,86.0,68.0,55,29.97,10.0,ENE,5.8,-,N/A,,Scattered Clouds,70,2013-09-04 02:53:00
10:53 PM,82.9,68.0,60,29.99,10.0,ENE,5.8,-,N/A,,Clear,70,2013-09-04 03:53:00
11:53 PM,82.0,68.0,62,29.99,10.0,ENE,4.6,-,N/A,,Scattered Clouds,70,2013-09-04 04:53:00